Wind_Speed
6 6 5 7 9 10 10 9 10 12 13 13 14 16 18 19 18 19 20 20 21 22 23 24 24 25 25 25 25 25 25 26 27 28 28 28 26 27 27 28 28 29 29 30
3 2 4 6 9 9 7 9 10 12 14 12 14 15 16 19 19 19 20 22 23 23 24 24 25 25 26 26 26 27 27 27 28 28 28 27 26 27 27 28 29 29 30 31
3 4 6 6 7 7 9 10 10 11 13 13 13 14 15 17 20 20 21 23 25 25 24 25 26 26 26 26 26 27 27 27 28 28 27 27 27 28 28 29 29 30 31 32
3 5 6 7 9 10 9 11 12 12 12 13 12 15 16 18 20 22 23 24 24 25 25 26 26 25 26 26 26 27 27 27 28 27 27 28 28 29 29 30 30 31 32 31
3 4 6 7 9 11 9 11 11 10 11 13 13 16 17 18 21 22 23 25 25 26 26 26 26 25 25 25 25 26 27 27 27 26 27 29 29 29 29 30 30 30 30 30
4 6 8 8 9 10 10 10 10 11 13 16 15 16 18 19 21 23 25 27 27 27 26 27 27 26 26 26 26 26 26 26 26 26 27 28 29 29 29 29 30 29 29 29
6 9 10 10 9 9 10 10 11 13 15 16 13 14 17 20 22 23 26 26 27 27 27 27 27 26 26 26 26 26 27 26 26 27 27 28 29 29 29 29 29 28 28 28
8 10 10 12 11 10 10 11 13 15 15 15 16 16 19 20 23 24 26 27 27 27 27 26 27 26 26 26 26 26 26 26 27 28 28 29 29 29 29 29 28 28 27 27
10 9 9 12 12 10 10 11 14 16 17 17 16 17 22 22 25 26 25 25 26 26 26 26 26 26 26 26 26 26 26 26 27 28 28 29 29 29 28 28 28 28 27 27
13 12 10 11 12 12 11 12 14 16 18 18 17 20 22 23 25 27 25 25 25 26 27 26 26 25 25 25 25 26 26 27 27 27 27 28 28 28 28 27 27 27 27 26
13 13 12 13 13 14 14 14 16 17 17 19 21 23 24 26 26 26 25 25 26 27 27 26 25 25 25 25 26 25 26 26 26 27 27 27 27 27 27 26 26 25 25 24
14 14 14 14 15 15 15 16 17 18 19 20 23 25 25 27 25 25 26 26 27 27 26 26 25 25 24 25 25 25 25 26 26 26 26 25 25 25 24 24 23 22 21 21
16 17 16 15 16 16 17 16 17 19 21 21 23 25 25 25 26 26 27 27 26 26 25 25 25 24 24 24 24 23 24 23 23 23 23 22 22 22 22 22 20 19 19 19
19 19 19 19 17 16 17 17 17 20 21 22 24 26 24 25 25 26 27 26 25 25 24 24 24 23 23 22 22 22 21 21 21 20 20 20 20 20 20 19 18 17 17 16
22 21 21 20 20 19 18 18 18 20 22 22 23 24 23 23 24 24 25 24 24 23 23 23 22 21 21 20 19 19 19 18 17 17 17 17 17 17 17 16 16 15 14 14
23 23 22 22 21 19 19 19 19 19 21 22 23 24 24 23 23 23 24 24 23 22 21 21 20 19 18 18 17 17 16 15 15 15 15 15 15 15 14 14 13 13 13 13
23 24 24 23 22 21 19 18 19 19 20 22 22 24 23 22 21 21 22 23 22 21 20 19 18 18 17 16 15 15 14 13 13 13 13 13 14 13 13 12 12 13 13 13
24 23 23 22 22 22 18 18 19 20 20 21 23 24 23 22 21 19 20 21 20 19 19 18 17 16 15 14 14 14 13 12 12 12 12 13 13 12 12 13 13 13 13 13
24 23 22 22 21 21 19 19 19 20 20 20 21 21 22 21 21 19 18 18 19 18 18 17 16 15 14 13 13 12 11 11 11 12 12 12 12 12 13 13 13 12 13 12
22 21 22 22 22 22 19 17 17 18 19 18 19 20 19 19 19 17 17 17 17 17 16 15 14 13 13 12 12 11 10 10 10 11 11 11 11 12 12 12 12 12 13 12
21 21 21 21 22 21 17 15 16 17 18 17 17 17 17 17 17 16 16 15 15 14 14 13 12 11 11 11 10 10 10 10 10 10 11 11 11 11 11 11 11 12 12 12
22 22 22 21 21 19 16 16 16 17 18 17 16 15 15 15 15 15 14 14 13 13 12 11 10 10 10 10 10 10 10 10 10 10 9 10 10 11 11 11 11 12 12 11
24 23 23 22 22 19 18 18 17 17 16 16 16 14 14 13 13 13 13 12 11 10 10 10 10 10 9 9 9 9 9 9 9 9 9 9 10 10 10 10 11 11 11 11
26 24 24 24 22 20 19 17 17 17 16 15 14 14 14 13 11 11 11 10 9 9 9 9 9 9 9 9 8 9 8 8 8 8 8 9 9 9 10 10 10 11 11 11
23 24 24 23 21 20 19 17 16 16 15 15 14 13 13 12 10 9 9 9 8 7 7 8 8 8 8 8 8 8 7 8 8 7 7 8 9 9 9 10 10 10 11 11
22 23 23 22 18 19 20 18 17 17 15 13 13 12 12 11 9 9 8 8 7 6 6 6 7 7 7 7 7 7 7 7 8 7 7 8 9 9 10 10 10 10 11 11
Wind_Direction
146 159 159 191 209 213 218 225 228 226 233 249 260 265 270 275 276 279 281 282 282 283 285 287 290 292 294 296 298 297 294 292 293 294 295 294 293 293 294 293 293 294 295 297
134 183 199 221 232 231 230 237 239 246 242 250 257 266 271 274 277 281 283 284 283 284 287 288 290 290 293 296 296 296 295 293 294 295 295 294 294 295 295 295 295 295 296 297
208 223 237 250 250 240 242 250 253 260 258 262 274 276 274 279 282 284 285 284 287 288 287 289 290 291 293 294 294 294 294 294 294 294 293 294 295 296 297 296 295 294 295 295
206 238 259 257 257 252 245 259 259 253 261 267 272 278 276 282 280 281 283 283 284 287 288 290 291 291 292 293 293 293 293 294 296 296 294 295 296 296 297 296 295 296 297 296
248 262 266 258 263 262 251 254 262 269 270 268 264 264 268 274 280 285 285 288 288 292 290 290 291 291 291 291 292 293 293 295 297 298 297 296 296 298 300 300 300 299 299 299
276 276 266 267 263 259 258 260 267 275 271 265 265 268 268 271 276 284 290 292 294 294 293 292 291 291 291 290 290 291 292 294 295 297 297 300 301 301 301 302 303 302 302 302
286 281 282 283 280 271 265 274 278 280 278 285 276 269 265 269 280 289 291 293 295 296 297 297 295 293 291 292 293 290 292 294 295 296 298 301 303 302 302 303 304 304 304 303
275 274 279 279 282 279 266 269 272 272 275 284 285 279 272 278 284 288 291 295 297 297 299 300 300 295 292 292 293 292 293 294 296 297 298 300 301 301 302 303 303 303 303 303
263 255 262 271 277 272 265 263 271 277 282 282 278 277 280 282 288 291 293 294 297 299 300 300 299 296 295 295 293 293 294 295 295 295 296 298 301 302 301 302 302 301 302 302
255 254 251 261 276 275 268 268 269 273 278 278 281 280 278 284 290 295 298 298 297 299 300 299 299 297 297 296 294 295 296 296 295 295 297 299 299 300 300 301 302 300 300 301
262 261 257 251 256 266 267 272 276 278 276 278 280 282 286 291 291 295 298 298 299 299 299 299 298 297 296 297 297 296 295 296 297 299 300 300 300 300 300 302 301 302 302 302
269 267 261 255 255 256 261 265 270 274 279 278 280 284 285 290 292 296 297 297 299 299 298 298 299 298 298 297 299 298 296 297 298 300 301 301 302 303 303 304 305 304 304 305
265 267 270 270 268 263 263 266 269 273 276 278 280 283 288 289 292 294 295 295 299 300 300 299 300 299 298 298 301 301 300 300 300 301 302 302 304 306 308 308 306 305 306 308
269 267 269 274 273 271 270 272 271 269 272 275 276 281 287 290 294 296 297 298 300 301 302 300 302 302 300 299 300 301 301 302 303 303 303 303 305 307 311 310 308 306 308 312
273 273 273 274 277 278 276 279 280 273 273 275 279 284 288 288 291 292 296 301 304 304 304 302 303 303 302 301 303 305 304 305 306 308 307 307 310 312 314 315 312 310 310 313
275 276 275 274 273 272 272 277 279 278 279 280 282 285 286 288 291 294 297 300 302 305 305 304 303 302 303 303 303 307 308 307 309 313 314 315 320 323 322 320 314 312 314 315
275 275 275 277 276 274 272 277 280 278 275 277 279 283 288 292 291 294 297 299 303 307 307 305 304 303 304 304 306 307 309 309 311 313 317 323 329 331 329 326 325 322 324 325
274 276 276 277 275 273 279 280 279 277 279 280 280 283 285 288 291 294 297 300 303 304 307 306 304 303 304 305 307 309 309 309 312 317 322 326 328 333 334 331 331 332 331 328
275 274 272 272 274 277 279 281 282 284 284 284 281 282 286 290 291 293 297 301 305 305 306 305 303 303 304 307 310 311 309 310 312 319 326 327 330 332 334 331 332 334 336 337
272 271 270 270 275 277 281 283 283 281 283 284 285 288 289 290 294 296 299 301 304 305 306 305 303 301 302 308 312 314 313 313 314 317 322 324 328 332 335 336 336 337 338 339
265 266 269 270 271 275 281 282 279 275 277 280 283 288 288 291 295 297 301 302 305 307 308 308 307 305 308 313 318 318 317 317 316 316 318 322 327 329 333 336 336 334 336 339
259 262 265 266 267 271 276 275 274 274 276 278 281 285 286 290 296 299 303 306 307 311 314 314 314 313 313 317 319 320 321 321 320 321 323 327 330 333 334 335 337 339 339 338
254 256 258 258 259 264 265 267 269 270 274 278 279 285 285 288 294 297 302 306 308 311 314 317 315 315 319 318 319 322 325 326 325 324 327 330 334 336 338 339 342 344 346 346
254 251 253 254 254 255 258 260 263 267 270 275 275 280 282 286 291 294 300 307 309 311 314 317 319 322 325 324 324 327 329 332 333 331 330 333 338 340 343 344 346 348 349 350
253 251 253 255 252 249 252 255 258 262 266 272 273 276 279 281 284 288 293 302 307 312 315 321 325 329 331 332 330 334 338 341 342 341 342 340 343 344 347 351 350 351 353 352
253 251 250 253 249 242 246 252 255 260 264 269 270 269 271 275 279 284 289 299 304 311 319 324 327 332 336 339 343 347 348 349 349 348 347 350 351 354 354 353 353 353 352 351
Height
5846 5849 5851 5853 5854 5854 5856 5858 5858 5859 5862 5862 5863 5862 5862 5862 5862 5862 5863 5862 5862 5861 5860 5858 5857 5856 5855 5853 5851 5850 5848 5846 5844 5843 5840 5838 5836 5834 5832 5830 5828 5826 5824 5822
5849 5850 5851 5853 5854 5854 5856 5857 5857 5858 5859 5860 5860 5860 5860 5859 5859 5859 5859 5858 5857 5856 5856 5854 5853 5851 5850 5848 5847 5845 5843 5841 5839 5837 5835 5833 5831 5829 5827 5824 5822 5820 5818 5815
5850 5852 5851 5853 5853 5855 5855 5855 5855 5857 5857 5857 5858 5858 5858 5857 5855 5855 5855 5854 5853 5851 5850 5849 5848 5847 5845 5843 5842 5840 5838 5836 5834 5832 5829 5827 5825 5823 5821 5818 5816 5814 5811 5808
5851 5852 5852 5853 5853 5854 5854 5854 5854 5855 5856 5856 5858 5857 5856 5854 5853 5852 5851 5849 5848 5846 5845 5843 5842 5841 5840 5838 5837 5835 5832 5830 5828 5825 5823 5821 5819 5817 5814 5812 5809 5807 5804 5801
5850 5851 5852 5852 5853 5852 5852 5853 5853 5853 5854 5855 5855 5855 5854 5851 5850 5848 5847 5845 5844 5841 5840 5838 5837 5836 5834 5833 5831 5829 5827 5825 5823 5820 5818 5815 5812 5810 5808 5805 5802 5799 5797 5794
5849 5851 5851 5851 5851 5851 5851 5852 5851 5851 5852 5852 5852 5852 5850 5846 5846 5845 5843 5841 5840 5838 5836 5834 5832 5830 5829 5827 5825 5823 5821 5820 5817 5815 5812 5809 5806 5803 5801 5798 5795 5793 5790 5787
5849 5849 5849 5849 5849 5850 5850 5851 5851 5851 5850 5848 5848 5847 5845 5843 5842 5840 5839 5837 5836 5834 5832 5829 5827 5825 5823 5821 5820 5818 5816 5814 5811 5809 5806 5803 5800 5797 5795 5792 5789 5786 5783 5780
5849 5849 5849 5848 5848 5848 5848 5849 5850 5849 5847 5846 5845 5843 5842 5840 5839 5837 5835 5833 5831 5829 5827 5825 5822 5819 5817 5815 5814 5812 5810 5808 5805 5803 5800 5797 5794 5791 5789 5786 5783 5780 5777 5774
5846 5847 5847 5846 5846 5847 5847 5847 5847 5845 5844 5843 5842 5840 5837 5835 5834 5833 5831 5829 5827 5825 5823 5820 5817 5814 5812 5809 5808 5806 5804 5802 5799 5797 5794 5791 5788 5785 5782 5780 5777 5774 5771 5768
5843 5844 5844 5845 5844 5844 5845 5844 5844 5842 5840 5839 5838 5836 5833 5830 5830 5827 5824 5823 5822 5820 5818 5815 5812 5809 5807 5804 5802 5800 5797 5795 5793 5791 5788 5785 5782 5779 5776 5774 5771 5768 5765 5762
5840 5840 5841 5841 5841 5841 5842 5842 5840 5839 5838 5836 5835 5834 5830 5827 5824 5822 5821 5819 5817 5815 5812 5810 5807 5804 5802 5799 5797 5794 5792 5789 5787 5784 5782 5779 5776 5773 5770 5767 5765 5762 5759 5757
5836 5836 5836 5837 5837 5837 5836 5837 5836 5835 5834 5832 5830 5831 5825 5823 5820 5817 5816 5814 5812 5810 5807 5804 5801 5799 5796 5794 5791 5788 5786 5783 5781 5778 5776 5773 5770 5768 5765 5762 5760 5757 5755 5752
5833 5833 5833 5833 5835 5833 5831 5831 5831 5830 5829 5828 5826 5826 5821 5818 5816 5814 5812 5810 5807 5805 5802 5799 5796 5793 5791 5788 5786 5783 5781 5778 5776 5773 5771 5768 5766 5763 5760 5757 5755 5753 5750 5748
5828 5828 5829 5829 5827 5827 5827 5826 5826 5825 5824 5823 5821 5819 5817 5813 5811 5809 5806 5804 5802 5800 5797 5794 5791 5788 5786 5783 5781 5778 5776 5774 5771 5769 5767 5764 5762 5759 5756 5753 5751 5748 5746 5744
5823 5823 5823 5823 5822 5822 5821 5821 5821 5820 5819 5818 5816 5813 5812 5810 5807 5804 5802 5800 5797 5795 5792 5789 5786 5784 5781 5779 5776 5774 5772 5769 5767 5765 5763 5761 5758 5756 5753 5750 5747 5745 5743 5742
5817 5817 5817 5817 5817 5817 5817 5816 5816 5815 5814 5813 5810 5809 5806 5805 5803 5800 5798 5796 5793 5790 5788 5785 5782 5780 5777 5775 5773 5771 5769 5766 5765 5763 5761 5758 5756 5753 5750 5747 5745 5742 5741 5739
5811 5810 5810 5810 5811 5810 5811 5812 5811 5810 5809 5807 5805 5804 5801 5799 5798 5796 5794 5791 5789 5786 5783 5781 5778 5776 5774 5772 5770 5768 5766 5764 5762 5760 5758 5756 5753 5750 5748 5746 5743 5741 5739 5737
5805 5804 5804 5804 5805 5803 5808 5806 5805 5804 5803 5802 5800 5798 5797 5795 5793 5791 5789 5787 5785 5782 5780 5777 5775 5773 5770 5769 5767 5765 5763 5762 5760 5758 5756 5754 5752 5749 5747 5745 5742 5740 5738 5735
5799 5798 5798 5798 5798 5798 5801 5801 5799 5798 5797 5796 5794 5793 5792 5790 5789 5787 5785 5783 5781 5779 5776 5774 5772 5770 5768 5766 5764 5763 5761 5759 5758 5756 5754 5752 5750 5748 5746 5743 5741 5739 5737 5734
5793 5792 5792 5792 5792 5792 5796 5796 5794 5794 5792 5791 5789 5788 5787 5786 5785 5784 5781 5779 5777 5775 5773 5771 5769 5767 5765 5764 5762 5760 5759 5757 5756 5754 5752 5751 5749 5747 5745 5743 5740 5738 5736 5734
5787 5787 5787 5786 5786 5787 5790 5790 5789 5789 5788 5786 5785 5784 5783 5782 5781 5780 5777 5776 5774 5772 5770 5768 5766 5765 5763 5762 5760 5758 5757 5755 5754 5753 5751 5749 5748 5746 5744 5742 5740 5738 5735 5733
5780 5781 5781 5781 5781 5784 5785 5785 5784 5783 5782 5781 5780 5780 5779 5778 5778 5776 5774 5773 5771 5769 5767 5766 5764 5763 5761 5760 5758 5757 5755 5754 5752 5751 5750 5748 5747 5745 5743 5741 5739 5737 5735 5733
5773 5774 5774 5775 5777 5778 5778 5778 5778 5778 5778 5777 5777 5777 5776 5775 5775 5773 5772 5770 5768 5767 5766 5764 5763 5761 5760 5758 5757 5756 5754 5753 5751 5750 5749 5747 5746 5744 5742 5741 5739 5737 5735 5732
5765 5766 5766 5767 5769 5771 5772 5772 5772 5773 5773 5773 5773 5773 5773 5773 5772 5771 5769 5768 5766 5765 5764 5763 5761 5760 5758 5757 5756 5755 5753 5752 5750 5749 5748 5747 5745 5744 5742 5740 5738 5736 5734 5732
5757 5758 5758 5760 5763 5764 5766 5767 5767 5768 5769 5770 5770 5770 5770 5769 5769 5768 5767 5766 5764 5764 5762 5761 5760 5759 5757 5756 5755 5754 5752 5751 5750 5749 5748 5746 5745 5743 5742 5740 5738 5736 5734 5732
5750 5751 5752 5753 5755 5757 5760 5762 5763 5764 5765 5766 5766 5766 5766 5766 5766 5766 5765 5764 5763 5762 5761 5760 5759 5758 5757 5756 5755 5753 5752 5751 5749 5748 5747 5746 5744 5743 5741 5740 5738 5736 5734 5732